Home   Weather   Regina   Past weeks

Flag for Canada Past Weather in Regina, Saskatchewan, Canada — Yesterday and Last 2 Weeks

Now
52 °F

Passing clouds.


Feels Like: 47 °F
Forecast: 50 / 71 °F
Wind: 16 mph from Southeast

Location: Regina Weather Station

Current Time: Sep 30, 2016 at 2:34:33 AM

Latest Report: Sep 30, 2016 at 2:00 AM


Visibility: 15 mi

Pressure: 30.09 "Hg (28.07 "Hg at 577m altitude)

Humidity: 77%

Dew Point: 45 °F

Location of ReginaLocation

Past Weather in Regina — Graph

°F

Regina Temperature Yesterday

Maximum temperature yesterday: 79 °F (at 3:00 PM)
Minimum temperature yesterday: 50 °F (at 7:00 AM)
Average temperature yesterday: 62 °F

High & Low Weather Summary for the Past Weeks

 TemperatureHumidityPressure
High79 °F (Sep 17, 1:00 PM)100% (Sep 15, 4:00 AM)30.35 "Hg (Sep 15, 4:00 AM)
Low32 °F (Sep 26, 5:00 AM)23% (Sep 17, 3:00 PM)29.47 "Hg (Sep 18, 6:00 AM)
Average54 °F66%30.03 "Hg
* Reported Sep 15 1:00 AM — Sep 30 1:00 AM, Regina, Weather by CustomWeather, © 2016

Note: Actual official high and low records may vary slightly from our data, if they occured in-between our weather recording intervals... More about our weather records

Advertising

Regina Weather History for the Previous 24 Hours

Scroll right to see more
 ConditionsComfort  
Time TempWeatherWind HumidityBarometerVisibility
1:00 AM
Fri, Sep 30
54 °FPassing clouds.14 mph72%30.10 "Hg15 mi
12:00 AM55 °FPassing clouds.17 mph67%30.12 "Hg15 mi
11:00 PM
Thu, Sep 29
57 °FPassing clouds.18 mph67%30.12 "Hg15 mi
10:00 PM59 °FPassing clouds.17 mph63%30.14 "Hg15 mi
9:00 PM61 °FPassing clouds.18 mph59%30.14 "Hg15 mi
8:00 PM63 °FPassing clouds.20 mph56%30.14 "Hg15 mi
7:00 PM68 °FPassing clouds.21 mph43%30.11 "Hg15 mi
6:00 PM73 °FScattered clouds.21 mph33%30.11 "Hg15 mi
5:00 PM77 °FPassing clouds.22 mph26%30.10 "Hg15 mi
4:00 PM79 °FPassing clouds.22 mph24%30.10 "Hg15 mi
3:00 PM79 °FPassing clouds.21 mph26%30.11 "Hg15 mi
2:00 PM77 °FPassing clouds.24 mph30%30.13 "Hg15 mi
1:00 PM75 °FPassing clouds.22 mph36%30.15 "Hg15 mi
12:00 PM70 °FPassing clouds.18 mph40%30.18 "Hg15 mi
11:00 AM64 °FPassing clouds.22 mph49%30.20 "Hg15 mi
10:00 AM61 °FPassing clouds.18 mph55%30.21 "Hg15 mi
9:00 AM55 °FPassing clouds.17 mph63%30.23 "Hg15 mi
8:00 AM50 °FPassing clouds.14 mph76%30.24 "Hg15 mi
7:00 AM50 °FScattered clouds.15 mph76%30.24 "Hg15 mi
6:00 AM52 °FPassing clouds.10 mph72%30.25 "Hg15 mi
5:00 AM54 °FPassing clouds.10 mph67%30.25 "Hg15 mi
4:00 AM54 °FPassing clouds.10 mph67%30.25 "Hg15 mi
3:00 AM54 °FPassing clouds.17 mph63%30.24 "Hg15 mi
2:00 AM54 °FPassing clouds.17 mph58%30.26 "Hg15 mi
Weather by CustomWeather, © 2016

See weather overviewHow to use our weather pages